Regional Weather Roundup
Issued by NWS

Home | Current Version | Previous Version | Text Only | Print | Product List | Glossary On
Versions: 1 2 3 4 5 6 7 8 9 10 11 12 13 14 15 16 17 18 19 20 21 22 23 24 25 26 27 28 29 30 31 32 33 34 35 36 37 38 39 40 41 42 43 44 45 46 47 48 49 50
000
ASCA44 KEWX 040320
RWRMX

LATIN AMERICA AND CARIBBEAN REGIONAL WEATHER ROUNDUP
NATIONAL WEATHER SERVICE AUSTIN/SAN ANTONIO TX
1000 PM CDT MON AUG 03 2015

NOTE: "FAIR" INDICATED FEW OR NO CLOUDS BELOW 12,000 FEET WITH NO
SIGNIFICANT WEATHER AND/OR OBSTRUCTIONS TO VISIBILITY.

BAJA CALIFORNIA

CITY           SKY/WX    TMP DP  RH WIND       PRES   REMARKS
LORETO           N/A    N/A N/A N/A MISG        N/A
LA PAZ         MOCLDY    84  70  61 S12       29.81R
MEXICALI       CLEAR     95  50  21 SE8       29.69R HX  92
S.J. DEL CABO  CLEAR     86  72  62 E3        29.80R HX  92
TIJUANA        CLEAR     70  61  73 W7        29.90R

NORTHWESTERN MEXICO

CITY           SKY/WX    TMP DP  RH WIND       PRES   REMARKS
CULIACAN       CLOUDY    86  72  62 CALM      29.81R HX  92
DURANGO        PTCLDY    64  57  77 SE8       30.16R
GUAYMAS          N/A    N/A N/A N/A MISG        N/A
HERMOSILLO     PTCLDY    99  66  34 SE6       29.80S HX 102
CD. JUAREZ     MOCLDY    84  61  45 SE10      29.97R
LOS MOCHIS     MOCLDY    86  72  62 SW7       29.77F HX  92
OBREGON          N/A    N/A N/A N/A MISG        N/A

NORTHEASTERN MEXICO

CITY           SKY/WX    TMP DP  RH WIND       PRES   REMARKS
CHIHUAHUA      MOCLDY    75  55  50 W6        30.07R
MATAMOROS        N/A    N/A N/A N/A MISG        N/A
MONCLOVA         N/A    N/A N/A N/A MISG        N/A
MONTERREY      PTCLDY    86  61  42 E5        29.82R
NUEVO LAREDO     N/A    N/A N/A N/A MISG        N/A
PIEDRAS NEGRAS   N/A    N/A N/A N/A MISG        N/A
REYNOSA        CLEAR     82  70  65 SE9G21    29.85R
SALTILLO       CLEAR     77  61  57 N9        30.08R
TORREON        CLEAR     91  54  27 N2        29.93R
CD. VICTORIA   CLEAR     82  68  61 S6        29.86R

WESTERN MEXICO

CITY           SKY/WX    TMP DP  RH WIND       PRES   REMARKS
AGUASCALIENTES MOCLDY    70  57  64 S12       30.19R
DEL BAJIO      MOCLDY    72  55  56 N7        30.21R
GUADALAJARA    MOCLDY    70  59  68 SW7       30.12R
MANZANILLO       N/A    N/A N/A N/A MISG        N/A
MAZATLAN       MOCLDY    81  73  78 W8        29.80R
P. VALLARTA    CLOUDY    84  75  74 CALM      29.82R HX  92
ZACATECAS      MOCLDY    63  54  72 CALM      30.22R

CENTRAL MEXICO

CITY           SKY/WX    TMP DP  RH WIND       PRES   REMARKS
MEXICO CITY    CLOUDY    68  50  52 N9        30.28R
POZA RICA      PTCLDY    82  75  78 S7        29.90R
PUEBLA         PTCLDY    57  54  88 N6        30.29R
QUERETARO      MOCLDY    70  55  60 NE12      30.24R
S. LUIS POTOSI CLEAR     68  54  60 SE8       30.19R
TAMPICO        CLEAR     82  73  74 E16       29.88R
TOLUCA         CLOUDY    57  54  88 N12       30.36R THUNDER

SOUTHERN MEXICO

CITY           SKY/WX    TMP DP  RH WIND       PRES   REMARKS
ACAPULCO       PTCLDY    86  77  74 W7        29.79R HX  97
OAXACA         MOCLDY    73  52  46 NE5       30.14R
VERACRUZ       PTCLDY    82  77  83 E2        29.87S HX  91
ZIHUATANEJO      N/A    N/A N/A N/A MISG        N/A

YUCATAN PENINSULA

CITY           SKY/WX    TMP DP  RH WIND       PRES   REMARKS
CAMPECHE       MOCLDY    79  75  89 NE8       29.89S
CANCUN         PTCLDY    82  75  78 E6        29.99R
CHETUMAL       PTCLDY    84  77  79 CALM      29.96R HX  94
COZUMEL        PTCLDY    77  75  94 CALM      29.99R
MERIDA         PTCLDY    81  72  74 E10       29.95R
TAPACHULA      PTCLDY    81  73  78 CALM      29.82R
TUX. GUTIERREZ PTCLDY    79  68  69 CALM      29.90R
VILLAHERMOSA   MOCLDY    82  73  74 E14       29.90R

CENTRAL AMERICA

CITY           SKY/WX    TMP DP  RH WIND       PRES   REMARKS
MANAGUA        PTCLDY    82  70  65 E7        29.83R

CARIBBEAN

CITY           SKY/WX    TMP DP  RH WIND       PRES   REMARKS
ARUBA          PTCLDY    82  77  83 E17       29.89R HX  91
CURACAO        MOCLDY    82  77  83 E14       29.92S HX  91
KINGSTON       PTCLDY    84  72  65 SE16      29.94S
NASSAU         PTCLDY    82  73  74 CALM      30.06R
SAN JUAN       PTCLDY    82  77  83 E10       30.07R HX  91
SANTO DOMINGO  PTCLDY    82  75  78 E9        30.00S
ST. CROIX      MOCLDY    82  73  74 E18G26    30.06
ST. MAARTEN    PTCLDY    82  73  74 E15       30.06S
ST. THOMAS     PTCLDY    84  73  70 E14       30.06  HX  91

$$



USA.gov is the U.S. government's official web portal to all federal, state and local government web resources and services.